Location: Zengebe
(1.4833°N, 32.5167°E)
Time: 22:17:27
(UTC+00:00)

ADEOS - Pass Details

Date: 07 June 2020
Orbit: 793 x 794 km, 98.9° (Epoch: 10 July)

Event Time Altitude Azimuth Distance (km) Brightness Sun altitude
Rises 01:31:02 0° 15° (NNE) 3,277 7.3 -30.8°
Reaches altitude 10° 01:33:21 10° 17° (NNE) 2,350 6.5 -30.2°
Enters shadow 01:38:10 73° 60° (ENE) 828 3.7 -29.2°
